{"data":{"norad_id":68972,"intl_designator":"2026-099X","name":"STARLINK-37259","alt_names":[],"object_type":"PAYLOAD","status":"ACTIVE","operator":null,"country":"US","launch_date":"2026-05-01","launch_site_code":"AFETR","launch_vehicle":null,"mission":null,"orbit_class":"UNKNOWN","rcs_meters":null,"size_class":null,"mass_kg":null,"dimensions":null,"purposes":["comms"],"wikipedia_slug":null,"has_3d_model":false,"image_url":null,"decayed_at":null,"tle_current":{"epoch":"2026-05-25T04:00:03.998880Z","epoch_age_seconds":54486,"freshness":"FRESH","line1":"1 68972U 26099X   26145.16671295 -.01535865  00000+0 -27654-1 0  9992","line2":"2 68972  53.1600 270.4695 0000561  99.9011 356.5150 15.52104290  4966","mean_motion":15.5210429,"eccentricity":5.61e-5,"inclination_deg":53.16,"raan_deg":270.4695,"arg_perigee_deg":99.9011,"mean_anomaly_deg":356.515,"bstar":-0.027654,"rev_number":496,"period_min":92.777270785071,"perigee_km":410.20233787967,"apogee_km":410.96403228443,"semimajor_km":6788.720185082,"source":"CELESTRAK","updated_at":"2026-05-25T13:38:22.076860Z"}}}